Regional Weather Roundup
Issued by NWS

Home | Current Version | Previous Version | Text Only | Print | Product List | Glossary Off
Versions: 1 2 3 4 5 6 7 8 9 10 11 12 13 14 15 16 17 18 19 20 21 22 23 24 25 26 27 28 29 30 31 32 33 34 35 36 37 38 39 40 41 42 43 44 45 46 47 48 49 50

000
ASUS45 KBOU 292007
RWRCO

WEATHER ROUNDUP FOR COLORADO
NATIONAL WEATHER SERVICE DENVER/BOULDER CO
200 PM MDT SUN MAR 29 2015

NOTE: "FAIR" INDICATES FEW OR NO CLOUDS BELOW 12000 FEET WITH NO
SIGNIFICANT WEATHER AND/OR OBSTRUCTIONS TO VISIBILITY.

COZ001>005-013-030-031-292100-
...NORTHWEST COLORADO...

CITY           SKY/WX    TMP DP  RH WIND       PRES   REMARKS
CRAIG          SUNNY     62  15  16 W9G16     30.27F
HAYDEN         SUNNY     57  16  19 W8        30.28F
MEEKER         SUNNY     63  13  14 SW8       30.27F
MOUNT WERNER   NOT AVBL
STEAMBOAT SPGS SUNNY     55  16  21 CALM      30.29F
WALDEN         SUNNY     54   9  16 SW10      30.29F
$$

COZ006>008-011-292100-
...WEST CENTRAL VALLEYS...

CITY           SKY/WX    TMP DP  RH WIND       PRES   REMARKS
GRAND JUNCTION SUNNY     70   9   9 VRB5      30.19F
MONTROSE       SUNNY     69   1   7 NW8       30.24F
EAGLE          SUNNY     64  12  13 CALM      30.26F
RIFLE          SUNNY     66  11  11 CALM      30.22F
DELTA          SUNNY     73   8   8 SW6       30.21F
NUCLA          SUNNY     68   9  10 CALM      30.28F
$$

COZ017>023-064>068-292100-
...SOUTHWEST COLORADO...

CITY           SKY/WX    TMP DP  RH WIND       PRES   REMARKS
DURANGO        SUNNY     69  19  15 SW7G22    30.24F
CORTEZ         SUNNY     74  17  11 W9G18     30.23F
PAGOSA SPRINGS MOSUNNY   66  11  11 W7        30.28F
TELLURIDE      SUNNY     59   3  10 W7G16     30.39F
WOLF CREEK PAS PTSUNNY   43  12  28 SW9G24    30.52F
$$

COZ009-010-012-014-032>034-037-058>063-292100-
...CENTRAL COLORADO...

CITY           SKY/WX    TMP DP  RH WIND       PRES   REMARKS
ASPEN          SUNNY     59  11  15 N10       30.29F
BUENA VISTA    SUNNY     64  -7   5 W16G23    30.26F
COPPER MTN     SUNNY     39  -9  12 W22G30    30.45F
BERTHOUD PASS  FAIR      32  27  80 NW17G30   30.45F WCI  21
COTTONWOOD PAS SUNNY     57 -24   3 SW5       30.37S
GUNNISON       SUNNY     63  12  14 SW10G20   30.31F
KREMMLING      SUNNY     61  -6   6 W15G21    30.29F
LEADVILLE      SUNNY     46   6  19 W14       30.36F
SALIDA         SUNNY     68   7   9 N9G16     30.32F
SUNLIGHT       SUNNY     46  10  23 SW3       30.47F
WILKERSON PASS SUNNY     46   1  15 W7        30.45F
$$

COZ069>075-292100-
...SAN LUIS VALLEY/SANGRE DE CRISTO MOUNTAINS...

CITY           SKY/WX    TMP DP  RH WIND       PRES   REMARKS
ALAMOSA        SUNNY     66  14  13 S8        30.27F
LA VETA PASS   SUNNY     45  23  42 NE5       30.42F
SAGUACHE       SUNNY     64   1   8 N16G30    30.29F
$$

COZ035-036-038>040-292100-
...NORTHERN COLORADO FRONT RANGE...

CITY           SKY/WX    TMP DP  RH WIND       PRES   REMARKS
DENVER INTL AP SUNNY     57  24  28 SE9G16    30.24F
DMNS CITY PARK   N/A     60  23  24 E8        30.23F
AURORA         MOSUNNY   56  22  26 E8        30.25F
FRONT RANGE AP SUNNY     57  25  28 E8        30.26F
ERIE MUNI ARPT SUNNY     60  19  20 S5        30.23F
BOULDER MUN AP SUNNY     59  23  25 SE8       30.22F
CENTENNIAL     MOSUNNY   55  22  27 SE7       30.25F
BROOMFIELD     SUNNY     57  21  24 SE13G20   30.25F
FORT COLLINS   SUNNY     61  21  21 S9G17     30.24F
LONGMONT       SUNNY     63  21  20 SE3       30.25F
$$

COZ041-046-047-076>085-087-088-292100-
...PIKES PEAK/PALMER DIVIDE AND SOUTHERN FOOTHILLS...

CITY           SKY/WX    TMP DP  RH WIND       PRES   REMARKS
COLO. SPRINGS  MOSUNNY   59  20  22 SE10G20   30.28F
A. F. ACADEMY  SUNNY     57  19  22 VRB5      30.27F
ELLICOTT       SUNNY    N/A N/A N/A VRB3      30.28F
FALCON         SUNNY     57  19  23 S7        30.31F
FORT CARSON    SUNNY     60  22  22 S15       30.26F
LIMON          SUNNY     57  22  25 N7        30.27F
MONUMENT HILL  SUNNY     50  21  32 E6        30.29F
TRINIDAD       SUNNY     61  20  20 E9        30.29F
$$

COZ042>045-048>051-090-091-292100-
...NORTHEAST COLORADO...

CITY           SKY/WX    TMP DP  RH WIND       PRES   REMARKS
GREELEY ARPT   SUNNY     63  21  20 S8        30.20F
AKRON          SUNNY     59  23  25 N23       30.24F
BURLINGTON     SUNNY     63  20  19 N17G29    30.23F
WRAY           SUNNY     64  19  17 N9G26     30.22F
STERLING       SUNNY     61  27  27 N12G23    30.21F
HOLYOKE        NOT AVBL
FORT MORGAN    SUNNY    N/A N/A N/A N10       30.24F
$$

COZ086-089-092>099-292100-
...SOUTHEAST COLORADO...

CITY           SKY/WX    TMP DP  RH WIND       PRES   REMARKS
PUEBLO         SUNNY     63  20  19 SE9       30.26F
LA JUNTA       SUNNY     67  20  16 NW9G16    30.25F
LAMAR          SUNNY     68  20  16 N18       30.21F
SPRINGFIELD      N/A     66  18  15 N16G29    30.23F
$$


USA.gov is the U.S. government's official web portal to all federal, state and local government web resources and services.